| time (UTC) | temp F | wind direction | speed knots | gust knots | rain 1hr in | rain 24hr in | rain mn in | humidity % | barometer mb |
| 20260901083045 | 69 | 205 | 1.7 | 2.6 | 0.00 | 0.00 | 0.00 | 56 | 1013.0 |
| 20260901082022 | 69 | 216 | 1.7 | 1.7 | 0.00 | 0.00 | 0.00 | 58 | 1013.0 |
| 20260901081023 | 69 | 250 | 1.7 | 1.7 | 0.00 | 0.00 | 0.00 | 57 | 1013.0 |
| 20260901080023 | 69 | 238 | 1.7 | 3.5 | 0.00 | 0.00 | 0.00 | 58 | 1013.0 |
| 20260901075022 | 0 | 215 | 1.7 | 2.6 | 0.00 | 0.00 | 0.00 | 1013.0 | |
| 20260901074025 | 0 | 223 | 0.0 | 1.7 | 0.00 | 0.00 | 0.00 | 1013.0 | |
| 20260901073023 | 68 | 203 | 0.9 | 1.7 | 0.00 | 0.00 | 0.00 | 61 | 1013.0 |
| 20260901072023 | 68 | 244 | 0.9 | 1.7 | 0.00 | 0.00 | 0.00 | 61 | 1013.0 |
| 20260901071023 | 68 | 239 | 0.9 | 2.6 | 0.00 | 0.00 | 0.00 | 63 | 1013.0 |
| 20260901070032 | 67 | 215 | 1.7 | 2.6 | 0.00 | 0.00 | 0.00 | 63 | 1013.0 |
| 20260901065105 | 67 | 217 | 0.9 | 1.7 | 0.00 | 0.00 | 0.00 | 65 | 1012.5 |
| 20260901064023 | 67 | 217 | 0.9 | 1.7 | 0.00 | 0.00 | 0.00 | 65 | 1012.0 |
| 20260901063023 | 67 | 171 | 0.9 | 1.7 | 0.00 | 0.00 | 0.00 | 66 | 1012.0 |
| 20260901062022 | 67 | 206 | 0.9 | 2.6 | 0.00 | 0.00 | 0.00 | 67 | 1012.0 |
| 20260901061023 | 66 | 0.0 | 0.0 | 0.00 | 0.00 | 0.00 | 68 | 1012.0 | |
| 20260901060026 | 66 | 222 | 0.9 | 0.9 | 0.00 | 0.00 | 0.00 | 69 | 1012.0 |
| 20260901055016 | 66 | 240 | 0.9 | 2.6 | 0.00 | 0.00 | 0.00 | 70 | 1012.0 |
| 20260901054023 | 65 | 242 | 0.9 | 1.7 | 0.00 | 0.00 | 0.00 | 71 | 1012.0 |
| 20260901053024 | 65 | 222 | 0.9 | 0.9 | 0.00 | 0.00 | 0.00 | 72 | 1012.0 |
| 20260901052044 | 65 | 203 | 0.9 | 2.6 | 0.00 | 0.00 | 0.00 | 72 | 1012.0 |
| 20260901051103 | 64 | 203 | 0.0 | 0.9 | 0.00 | 0.00 | 0.00 | 73 | 1012.0 |
| 20260901050044 | 64 | 0.0 | 0.0 | 0.00 | 0.00 | 0.00 | 74 | 1012.0 | |
| 20260901045026 | 64 | 0.0 | 0.0 | 0.00 | 0.00 | 0.00 | 74 | 1012.0 | |
| 20260901044025 | 64 | 177 | 1.7 | 2.6 | 0.00 | 0.00 | 0.00 | 74 | 1012.0 |
| 20260901043020 | 64 | 217 | 0.9 | 0.9 | 0.00 | 0.00 | 0.00 | 74 | 1012.0 |
| 20260901042045 | 65 | 248 | 0.0 | 1.7 | 0.00 | 0.00 | 0.00 | 74 | 1011.5 |
| 20260901041023 | 65 | 225 | 0.0 | 0.9 | 0.00 | 0.00 | 0.00 | 75 | 1011.0 |
| 20260901040025 | 65 | 0.0 | 0.0 | 0.00 | 0.00 | 0.00 | 75 | 1011.0 | |
| 20260901035023 | 65 | 225 | 0.0 | 0.9 | 0.00 | 0.00 | 0.00 | 75 | 1011.0 |
| 20260901034017 | 65 | 203 | 0.0 | 1.7 | 0.00 | 0.00 | 0.00 | 76 | 1011.0 |
| 20260901033018 | 65 | 225 | 0.0 | 2.6 | 0.00 | 0.00 | 0.00 | 76 | 1011.0 |
| 20260901032024 | 65 | 0.0 | 0.0 | 0.00 | 0.00 | 0.00 | 77 | 1011.0 | |
| 20260901031023 | 65 | 0.0 | 0.0 | 0.00 | 0.00 | 0.00 | 77 | 1011.0 | |
| 20260901030024 | 65 | 235 | 0.0 | 0.9 | 0.00 | 0.00 | 0.00 | 77 | 1011.0 |
| 20260901025018 | 65 | 0.0 | 0.0 | 0.00 | 0.00 | 0.00 | 78 | 1011.0 | |
| 20260901024023 | 65 | 293 | 0.0 | 0.9 | 0.00 | 0.00 | 0.00 | 78 | 1011.0 |
| 20260901023024 | 65 | 248 | 0.0 | 0.9 | 0.00 | 0.00 | 0.00 | 78 | 1011.0 |
| 20260901022016 | 65 | 0.0 | 0.0 | 0.00 | 0.00 | 0.00 | 79 | 1011.0 | |
| 20260901021015 | 65 | 0.0 | 0.0 | 0.00 | 0.00 | 0.00 | 79 | 1011.0 | |
| 20260901020023 | 65 | 0.0 | 0.0 | 0.00 | 0.00 | 0.00 | 79 | 1011.0 | |
| 20260901015015 | 65 | 0.0 | 0.0 | 0.00 | 0.00 | 0.00 | 80 | 1011.0 | |
| 20260901014022 | 65 | 225 | 0.0 | 0.9 | 0.00 | 0.00 | 0.00 | 80 | 1011.0 |
| 20260901013022 | 65 | 225 | 0.0 | 0.9 | 0.00 | 0.00 | 0.00 | 80 | 1011.0 |
| 20260901012022 | 65 | 0.0 | 0.0 | 0.00 | 0.00 | 0.00 | 80 | 1011.0 | |
| 20260901011018 | 66 | 0.0 | 0.0 | 0.00 | 0.00 | 0.00 | 80 | 1011.0 | |
| 20260901010054 | 66 | 248 | 0.0 | 0.9 | 0.00 | 0.00 | 0.00 | 80 | 1011.0 |
| 20260901005026 | 66 | 0.0 | 0.0 | 0.00 | 0.00 | 0.00 | 80 | 1011.0 | |
| 20260901004022 | 66 | 0.0 | 0.0 | 0.00 | 0.00 | 0.00 | 80 | 1011.0 | |
| 20260901003022 | 66 | 0.0 | 0.0 | 0.00 | 0.00 | 0.00 | 80 | 1012.0 | |
| 20260901002022 | 66 | 0.0 | 0.0 | 0.00 | 0.00 | 0.00 | 80 | 1011.5 | |
| 20260901001018 | 66 | 0.0 | 0.0 | 0.00 | 0.00 | 0.00 | 80 | 1011.8 | |
| 20260901000044 | 66 | 0.0 | 0.0 | 0.00 | 0.00 | 0.00 | 80 | 1012.0 | |
| 20260831235021 | 66 | 0.0 | 0.0 | 0.00 | 0.00 | 0.00 | 80 | 1012.0 | |
| 20260831234042 | 66 | 0.0 | 0.0 | 0.00 | 0.00 | 0.00 | 81 | 1012.0 | |
| 20260831233023 | 66 | 0.0 | 0.0 | 0.00 | 0.00 | 0.00 | 80 | 1012.0 | |
| 20260831232023 | 66 | 0.0 | 0.0 | 0.00 | 0.00 | 0.00 | 80 | 1012.0 | |
| 20260831231021 | 66 | 0.0 | 0.0 | 0.00 | 0.00 | 0.00 | 80 | 1012.0 | |
| 20260831230020 | 66 | 0.0 | 0.0 | 0.00 | 0.00 | 0.00 | 80 | 1012.0 | |
| 20260831225023 | 66 | 0.0 | 0.0 | 0.00 | 0.00 | 0.00 | 80 | 1012.0 | |
| 20260831224020 | 66 | 0.0 | 0.0 | 0.00 | 0.00 | 0.00 | 80 | 1012.0 | |
| 20260831223026 | 66 | 0.0 | 0.0 | 0.00 | 0.00 | 0.00 | 80 | 1012.0 | |
| 20260831222023 | 66 | 0.0 | 0.0 | 0.00 | 0.00 | 0.00 | 80 | 1012.0 | |
| 20260831221017 | 67 | 0.0 | 0.0 | 0.00 | 0.00 | 0.00 | 80 | 1012.0 | |
| 20260831220043 | 67 | 0.0 | 0.0 | 0.00 | 0.00 | 0.00 | 80 | 1013.0 | |
| 20260831215020 | 67 | 203 | 0.9 | 1.7 | 0.00 | 0.00 | 0.00 | 80 | 1012.4 |
| 20260831214015 | 67 | 0.0 | 0.0 | 0.00 | 0.00 | 0.00 | 80 | 1012.0 | |
| 20260831213025 | 67 | 0.0 | 0.0 | 0.00 | 0.00 | 0.00 | 80 | 1012.0 | |
| 20260831212023 | 67 | 0.0 | 0.0 | 0.00 | 0.00 | 0.00 | 80 | 1012.5 | |
| 20260831211042 | 67 | 0.0 | 0.0 | 0.00 | 0.00 | 0.00 | 80 | 1013.0 | |
| 20260831210022 | 67 | 0.0 | 0.0 | 0.00 | 0.00 | 0.00 | 79 | 1013.0 | |
| 20260831205017 | 67 | 0.0 | 0.0 | 0.00 | 0.00 | 0.00 | 79 | 1013.0 | |
| 20260831204023 | 67 | 0.0 | 0.0 | 0.00 | 0.00 | 0.00 | 79 | 1013.0 | |
| 20260831203022 | 67 | 0.0 | 0.0 | 0.00 | 0.00 | 0.00 | 79 | 1013.0 | |
| 20260831202023 | 67 | 0.0 | 0.0 | 0.00 | 0.00 | 0.00 | 79 | 1013.0 | |
| 20260831201022 | 67 | 0.0 | 0.0 | 0.00 | 0.00 | 0.00 | 78 | 1013.0 | |
| 20260831200028 | 67 | 0.0 | 0.0 | 0.00 | 0.00 | 0.00 | 78 | 1012.0 | |
| 20260831195022 | 67 | 0.0 | 0.0 | 0.00 | 0.00 | 0.00 | 78 | 1012.0 | |
| 20260831194039 | 67 | 0.0 | 0.0 | 0.00 | 0.00 | 0.00 | 77 | 1012.0 | |
| 20260831193024 | 67 | 0.0 | 0.0 | 0.00 | 0.00 | 0.00 | 77 | 1012.0 | |
| 20260831192015 | 67 | 0.0 | 0.0 | 0.00 | 0.00 | 0.00 | 77 | 1012.0 | |
| 20260831191037 | 68 | 0.0 | 0.0 | 0.00 | 0.00 | 0.00 | 76 | 1012.0 | |
| 20260831190043 | 68 | 0.0 | 0.0 | 0.00 | 0.00 | 0.00 | 76 | 1012.0 | |
| 20260831185023 | 68 | 0.0 | 0.0 | 0.00 | 0.00 | 0.00 | 76 | 1012.0 | |
| 20260831184022 | 68 | 0.0 | 0.0 | 0.00 | 0.00 | 0.00 | 75 | 1012.0 | |
| 20260831183023 | 68 | 0.0 | 0.0 | 0.00 | 0.00 | 0.00 | 74 | 1012.0 | |
| 20260831182021 | 68 | 0.0 | 0.0 | 0.00 | 0.00 | 0.00 | 74 | 1012.0 | |
| 20260831181044 | 68 | 0.0 | 0.0 | 0.00 | 0.00 | 0.00 | 74 | 1012.0 | |
| 20260831180024 | 69 | 0.0 | 0.0 | 0.00 | 0.00 | 0.00 | 73 | 1012.0 | |
| 20260831175023 | 69 | 0.0 | 0.0 | 0.00 | 0.00 | 0.00 | 73 | 1012.0 | |
| 20260831174023 | 69 | 0.0 | 0.0 | 0.00 | 0.00 | 0.00 | 73 | 1012.0 | |
| 20260831173025 | 69 | 0.0 | 0.0 | 0.00 | 0.00 | 0.00 | 72 | 1011.0 | |
| 20260831172023 | 69 | 0.0 | 0.0 | 0.00 | 0.00 | 0.00 | 72 | 1011.0 | |
| 20260831171046 | 69 | 0.0 | 0.0 | 0.00 | 0.00 | 0.00 | 71 | 1011.0 | |
| 20260831170015 | 69 | 0.0 | 0.0 | 0.00 | 0.00 | 0.00 | 71 | 1012.0 | |
| 20260831165023 | 70 | 0.0 | 0.0 | 0.00 | 0.00 | 0.00 | 71 | 1011.7 | |
| 20260831164105 | 70 | 0.0 | 0.0 | 0.00 | 0.00 | 0.00 | 71 | 1011.0 | |
| 20260831163024 | 70 | 0.0 | 0.0 | 0.00 | 0.00 | 0.00 | 71 | 1011.0 | |
| 20260831162022 | 69 | 0.0 | 0.0 | 0.00 | 0.00 | 0.00 | 71 | 1011.0 | |
| 20260831161024 | 69 | 0.0 | 0.0 | 0.00 | 0.00 | 0.00 | 71 | 1011.0 | |
| 20260831160022 | 69 | 0.0 | 0.0 | 0.00 | 0.00 | 0.00 | 70 | 1011.0 | |
| 20260831155019 | 69 | 0.0 | 0.0 | 0.00 | 0.00 | 0.00 | 71 | 1011.0 | |
| 20260831154026 | 69 | 0.0 | 0.0 | 0.00 | 0.00 | 0.00 | 70 | 1011.0 | |
| 20260831153100 | 69 | 0.0 | 0.0 | 0.00 | 0.00 | 0.00 | 70 | 1012.0 | |
| 20260831152024 | 70 | 0.0 | 0.0 | 0.00 | 0.00 | 0.00 | 69 | 1012.0 | |
| 20260831151043 | 70 | 0.0 | 0.0 | 0.00 | 0.00 | 0.00 | 68 | 1012.0 | |
| 20260831150023 | 70 | 0.0 | 0.0 | 0.00 | 0.00 | 0.00 | 67 | 1012.0 | |
| 20260831145021 | 70 | 293 | 0.0 | 0.9 | 0.00 | 0.00 | 0.00 | 67 | 1012.0 |
| 20260831144047 | 70 | 0.0 | 0.0 | 0.00 | 0.00 | 0.00 | 66 | 1012.0 | |
| 20260831143030 | 70 | 248 | 0.0 | 0.9 | 0.00 | 0.00 | 0.00 | 65 | 1012.0 |
| 20260831142024 | 70 | 248 | 0.0 | 0.9 | 0.00 | 0.00 | 0.00 | 66 | 1012.0 |
| 20260831141023 | 70 | 0.0 | 0.0 | 0.00 | 0.00 | 0.00 | 66 | 1012.0 | |
| 20260831140016 | 71 | 0.0 | 0.0 | 0.00 | 0.00 | 0.00 | 65 | 1013.0 | |
| 20260831135028 | 71 | 0.0 | 0.0 | 0.00 | 0.00 | 0.00 | 64 | 1012.7 | |
| 20260831134027 | 71 | 0.0 | 0.0 | 0.00 | 0.00 | 0.00 | 63 | 1012.0 | |
| 20260831133023 | 71 | 0.0 | 0.0 | 0.00 | 0.00 | 0.00 | 61 | 1013.0 | |
| 20260831132017 | 71 | 225 | 0.0 | 0.9 | 0.00 | 0.00 | 0.00 | 59 | 1012.9 |
| 20260831131027 | 71 | 203 | 0.0 | 0.9 | 0.00 | 0.00 | 0.00 | 57 | 1012.9 |
| 20260831130033 | 72 | 304 | 0.0 | 0.9 | 0.00 | 0.00 | 0.00 | 54 | 1013.0 |
| 20260831125035 | 73 | 180 | 0.0 | 0.9 | 0.00 | 0.00 | 0.00 | 52 | 1013.0 |
| 20260831124022 | 74 | 196 | 0.9 | 1.7 | 0.00 | 0.00 | 0.00 | 49 | 1013.0 |
| 20260831123043 | 75 | 225 | 0.9 | 0.9 | 0.00 | 0.00 | 0.00 | 46 | 1012.0 |
| 20260831122019 | 76 | 205 | 0.9 | 1.7 | 0.00 | 0.00 | 0.00 | 43 | 1011.8 |
| 20260831121024 | 77 | 229 | 0.9 | 1.7 | 0.00 | 0.00 | 0.00 | 42 | 1011.0 |
| 20260831120022 | 77 | 236 | 0.9 | 1.7 | 0.00 | 0.00 | 0.00 | 42 | 1012.0 |
| 20260831115045 | 77 | 225 | 0.0 | 1.7 | 0.00 | 0.00 | 0.00 | 42 | 1012.0 |
| 20260831114043 | 77 | 0.0 | 0.0 | 0.00 | 0.00 | 0.00 | 42 | 1012.0 | |
| 20260831113023 | 78 | 245 | 0.9 | 1.7 | 0.00 | 0.00 | 0.00 | 42 | 1012.0 |
| 20260831112021 | 78 | 259 | 0.9 | 1.7 | 0.00 | 0.00 | 0.00 | 42 | 1012.0 |
| 20260831111023 | 78 | 203 | 0.0 | 1.7 | 0.00 | 0.00 | 0.00 | 42 | 1012.0 |
| 20260831110022 | 78 | 260 | 0.9 | 1.7 | 0.00 | 0.00 | 0.00 | 42 | 1012.0 |
| 20260831105022 | 78 | 277 | 0.9 | 0.9 | 0.00 | 0.00 | 0.00 | 42 | 1012.0 |
| 20260831104023 | 78 | 208 | 0.9 | 0.9 | 0.00 | 0.00 | 0.00 | 42 | 1012.0 |
| 20260831103022 | 78 | 224 | 0.9 | 1.7 | 0.00 | 0.00 | 0.00 | 42 | 1012.0 |
| 20260831102026 | 78 | 211 | 0.9 | 1.7 | 0.00 | 0.00 | 0.00 | 42 | 1012.0 |
| 20260831101025 | 78 | 214 | 0.9 | 2.6 | 0.00 | 0.00 | 0.00 | 42 | 1012.0 |
| 20260831100019 | 79 | 226 | 1.7 | 1.7 | 0.00 | 0.00 | 0.00 | 43 | 1012.0 |
| 20260831095025 | 79 | 68 | 0.9 | 2.6 | 0.00 | 0.00 | 0.00 | 43 | 1012.0 |
| 20260831094025 | 78 | 248 | 0.9 | 0.9 | 0.00 | 0.00 | 0.00 | 45 | 1012.0 |
| 20260831093042 | 78 | 218 | 0.9 | 1.7 | 0.00 | 0.00 | 0.00 | 44 | 1012.0 |
| 20260831092044 | 78 | 286 | 0.9 | 0.9 | 0.00 | 0.00 | 0.00 | 45 | 1012.0 |
| 20260831091015 | 77 | 46 | 0.9 | 1.7 | 0.00 | 0.00 | 0.00 | 45 | 1012.0 |
| 20260831085025 | 76 | 209 | 0.0 | 0.9 | 0.00 | 0.00 | 0.00 | 46 | 1012.0 |
| 20260831084100 | 76 | 273 | 0.0 | 0.9 | 0.00 | 0.00 | 0.00 | 47 | 1012.0 |